Temp
63 63 63 63 63 63 63 63 63 63 63 63 64 64 63 64 64 69 72 76 76 72 70 79 79 77 77 72 71 71 69 65 66 63 69 70 70 71 72 73 71 73 73 73 77
63 63 63 63 63 63 63 63 63 63 63 63 63 64 64 63 70 71 73 72 72 71 78 78 75 76 75 71 71 73 67 68 70 71 70 71 71 72 71 71 70 71 73 70 72
62 62 62 62 62 62 63 63 62 62 63 63 63 63 63 65 71 73 71 72 72 73 78 78 77 76 71 71 69 67 68 68 68 70 70 70 68 73 72 69 76 75 78 71 71
62 62 62 62 62 62 62 62 62 62 62 62 63 63 63 70 63 72 70 71 71 76 77 75 75 71 68 67 68 66 66 67 67 67 66 66 70 68 71 77 76 79 75 74 71
61 61 61 61 61 62 62 62 62 62 62 62 63 63 69 69 71 73 68 70 75 75 75 74 72 70 67 68 67 66 66 66 66 65 67 65 67 69 69 77 75 70 69 72 73
60 60 60 60 61 61 62 62 62 62 62 63 63 63 70 64 72 74 72 72 75 75 73 75 73 73 68 66 66 66 65 66 66 66 66 64 66 65 73 72 72 69 72 73 73
60 60 60 60 60 61 61 62 62 62 62 63 64 66 66 69 72 74 72 72 73 75 72 72 74 72 70 63 65 64 62 65 67 65 65 65 62 62 75 68 70 71 72 71 72
60 60 59 60 60 61 61 61 61 61 62 63 63 67 65 69 73 70 73 71 73 74 72 72 74 68 67 66 64 61 61 59 63 61 62 64 62 69 67 67 70 73 74 71 71
59 59 59 60 60 60 60 61 61 61 62 63 65 65 63 68 66 70 72 70 70 71 71 71 70 64 65 63 60 58 59 55 60 62 60 61 63 67 64 64 68 72 73 72 71
59 59 59 60 60 60 60 61 61 62 64 65 65 61 64 62 65 67 70 70 68 68 68 67 65 63 62 62 55 56 54 53 57 60 57 58 59 68 69 65 69 73 73 72 71
59 59 59 59 60 60 61 60 59 58 58 61 60 60 60 63 66 64 67 67 67 65 60 58 59 55 62 64 62 58 56 57 60 59 57 59 60 64 70 68 66 70 73 74 74
59 59 59 59 60 60 62 59 59 60 55 60 59 59 62 65 58 61 67 64 61 57 57 56 53 62 60 58 57 56 56 56 58 57 54 58 56 61 65 67 68 71 73 75 76
58 58 58 59 60 59 57 61 65 64 54 56 58 58 60 62 60 59 64 60 57 52 54 56 58 58 56 52 52 53 53 54 53 54 53 51 55 57 64 64 67 69 70 73 73
56 57 58 58 56 58 55 64 65 65 48 51 53 57 57 62 56 62 67 62 55 54 53 55 57 52 51 51 54 49 55 54 51 50 49 53 48 60 65 67 65 68 70 70 69
56 56 57 57 55 53 55 61 62 60 33 56 50 62 57 58 57 54 60 60 53 52 53 54 49 49 49 52 54 53 52 52 50 50 47 52 46 59 59 59 65 71 69 66 64
56 56 56 56 55 55 57 56 55 41 32 47 50 49 51 54 51 53 56 60 59 52 51 51 52 54 56 51 54 50 50 48 47 48 41 52 50 56 61 62 68 68 63 62 61
55 55 55 56 53 56 56 50 39 31 45 44 44 47 49 47 47 50 48 49 50 45 46 46 49 50 52 48 50 51 51 42 39 37 40 46 45 56 62 62 64 65 62 63 58
55 55 54 55 56 57 53 39 29 33 40 44 44 45 45 47 47 46 46 45 52 51 51 46 43 50 53 55 50 47 51 45 33 38 45 40 39 53 62 65 63 62 60 58 58
54 53 51 53 54 54 46 32 35 37 43 42 42 39 41 45 46 45 46 48 52 50 47 46 46 51 49 53 57 48 43 55 45 31 36 48 55 55 57 59 58 59 57 58 56
50 49 50 56 55 50 40 35 39 46 46 45 36 39 34 38 40 40 42 51 48 51 56 51 43 46 48 52 52 52 56 42 44 33 33 47 45 49 54 56 58 57 59 55 52
48 44 53 57 55 44 33 37 41 47 48 44 41 38 39 37 36 35 36 46 49 48 53 52 46 41 45 45 47 45 44 45 48 43 38 38 48 58 59 57 57 58 55 55 53
45 39 51 55 41 43 36 40 45 46 48 45 44 43 41 43 39 37 37 42 48 50 43 48 40 35 41 46 47 51 50 49 41 36 39 37 45 54 56 59 59 56 54 54 54
41 41 50 49 35 37 42 41 46 44 44 45 42 44 44 40 36 39 41 45 47 46 41 44 35 32 33 38 43 41 47 50 50 40 36 36 45 47 50 52 52 54 54 51 50
40 34 41 42 46 42 40 40 39 46 45 46 45 46 43 41 43 38 40 44 44 43 43 45 34 34 35 40 42 36 41 45 46 35 39 40 47 48 49 52 53 52 54 53 50
39 36 40 34 37 41 42 41 38 38 44 45 43 44 42 37 40 38 43 44 44 44 42 40 32 34 40 43 39 41 41 41 39 43 35 45 46 52 57 55 59 58 54 51 49
36 35 36 37 38 40 40 36 38 40 41 39 39 42 43 39 41 34 38 40 40 41 40 40 33 34 33 36 36 33 41 43 44 43 43 45 46 59 61 63 61 56 55 52 51
40 41 40 35 35 36 37 39 39 43 42 43 42 39 36 39 43 43 44 43 40 37 35 34 33 32 32 38 35 31 36 40 44 48 48 41 49 56 55 53 56 57 58 57 56
MSLP
1019.04 1019.08 1018.86 1018.83 1018.92 1019.11 1019.12 1019.13 1019.10 1018.98 1018.75 1018.65 1018.48 1018.42 1018.24 1018.01 1017.73 1017.35 1016.59 1016.27 1016.11 1016.28 1016.38 1016.27 1016.18 1016.25 1016.15 1016.25 1016.46 1016.36 1015.38 1014.79 1014.73 1015.15 1014.97 1015.95 1016.02 1016.60 1016.85 1016.68 1017.16 1017.32 1017.34 1017.92 1018.08
1018.79 1018.91 1018.87 1018.81 1018.83 1018.95 1019.02 1019.08 1019.10 1019.00 1018.81 1018.62 1018.40 1018.21 1018.12 1017.96 1017.46 1016.69 1016.33 1016.19 1016.30 1016.34 1016.25 1015.92 1015.90 1016.06 1015.91 1016.16 1016.33 1015.88 1015.46 1015.00 1015.29 1015.35 1015.40 1015.86 1016.03 1016.19 1016.53 1016.39 1016.72 1017.02 1017.58 1018.30 1018.61
1018.69 1018.78 1018.82 1018.86 1018.85 1018.86 1019.02 1018.94 1018.93 1018.93 1018.84 1018.56 1018.30 1018.08 1017.88 1017.69 1017.06 1016.20 1016.23 1016.22 1016.28 1016.32 1016.21 1016.02 1015.86 1015.84 1015.72 1016.01 1016.28 1016.18 1015.52 1015.60 1015.71 1015.98 1016.15 1016.15 1016.30 1016.34 1016.04 1015.70 1015.45 1015.69 1016.27 1017.68 1018.17
1018.55 1018.76 1018.72 1018.79 1018.86 1018.85 1018.94 1018.90 1018.78 1018.75 1018.81 1018.54 1018.19 1017.94 1017.61 1017.26 1016.92 1016.26 1016.30 1016.32 1016.41 1016.36 1016.22 1016.12 1015.90 1015.64 1015.59 1015.88 1016.35 1016.22 1016.22 1016.25 1016.31 1016.62 1016.69 1016.48 1016.38 1016.26 1015.83 1015.04 1015.62 1015.74 1016.35 1017.11 1017.52
1018.49 1018.56 1018.66 1018.60 1018.77 1018.75 1018.87 1018.87 1018.82 1018.68 1018.65 1018.55 1018.15 1017.82 1017.41 1016.98 1016.30 1016.31 1016.39 1016.45 1016.48 1016.51 1016.10 1015.89 1015.63 1015.63 1015.62 1016.04 1016.50 1016.36 1016.48 1016.73 1016.79 1016.89 1016.86 1016.88 1016.47 1016.21 1015.39 1015.48 1015.86 1016.35 1016.67 1016.62 1016.80
1018.38 1018.27 1018.52 1018.57 1018.54 1018.65 1018.70 1018.79 1018.80 1018.73 1018.61 1018.48 1018.20 1017.77 1017.43 1016.95 1016.35 1016.31 1016.46 1016.52 1016.41 1016.28 1016.07 1015.89 1015.66 1015.87 1016.08 1016.42 1016.62 1016.73 1016.83 1016.84 1016.89 1016.86 1016.91 1016.80 1016.54 1016.65 1015.02 1015.35 1015.53 1015.94 1015.95 1016.10 1016.26
1017.80 1018.13 1018.34 1018.58 1018.55 1018.47 1018.72 1018.83 1018.81 1018.78 1018.60 1018.42 1018.23 1017.91 1017.44 1016.58 1016.36 1016.39 1016.50 1016.51 1016.49 1016.22 1016.10 1016.26 1016.18 1016.15 1016.46 1016.81 1017.24 1017.10 1016.91 1016.74 1016.58 1016.90 1016.95 1016.94 1016.33 1015.41 1014.74 1015.48 1015.29 1015.27 1015.49 1015.73 1015.89
1017.30 1017.99 1018.10 1018.47 1018.39 1018.37 1018.47 1018.73 1018.77 1018.73 1018.60 1018.43 1018.30 1018.00 1017.01 1016.57 1016.55 1016.63 1016.59 1016.67 1016.64 1016.50 1016.49 1016.64 1016.56 1016.70 1016.93 1017.45 1017.31 1017.04 1016.91 1016.32 1016.36 1016.94 1017.22 1017.07 1014.78 1014.60 1014.99 1015.08 1014.60 1014.55 1014.53 1014.94 1015.20
1017.14 1017.68 1017.74 1018.32 1018.18 1018.13 1018.29 1018.54 1018.57 1018.57 1018.52 1018.36 1018.21 1017.79 1016.86 1016.72 1016.75 1016.52 1016.59 1016.54 1016.77 1016.87 1016.94 1016.90 1016.85 1017.28 1017.38 1016.92 1016.88 1016.90 1016.02 1016.34 1016.37 1016.74 1016.98 1016.86 1014.86 1014.82 1015.15 1015.03 1014.37 1014.01 1013.86 1013.96 1014.21
1016.82 1017.24 1017.59 1018.02 1017.97 1018.07 1018.00 1018.55 1018.40 1018.26 1018.30 1018.21 1018.05 1018.01 1016.82 1016.56 1016.62 1016.67 1016.74 1016.73 1016.79 1016.94 1016.99 1017.00 1017.17 1017.14 1017.10 1016.60 1015.54 1015.74 1016.20 1016.42 1016.30 1016.71 1017.04 1016.64 1015.18 1014.59 1014.57 1014.60 1013.71 1013.26 1013.23 1013.08 1013.18
1016.56 1016.72 1017.20 1017.61 1017.81 1017.72 1017.93 1018.56 1018.51 1018.41 1018.17 1017.20 1016.84 1016.54 1016.44 1016.80 1016.80 1016.85 1016.86 1016.84 1016.90 1017.00 1016.83 1017.41 1017.00 1016.32 1015.95 1015.59 1016.04 1016.11 1016.24 1016.09 1016.34 1016.85 1017.00 1016.24 1015.32 1014.07 1013.83 1013.58 1012.93 1012.42 1012.06 1011.82 1011.85
1016.15 1016.54 1016.89 1017.23 1017.35 1017.57 1017.85 1017.90 1017.55 1017.59 1017.26 1016.54 1016.90 1016.82 1016.46 1016.49 1016.80 1016.95 1017.02 1016.80 1016.83 1016.74 1017.30 1017.65 1016.53 1016.21 1016.55 1016.70 1016.74 1016.79 1016.56 1016.42 1016.66 1016.99 1017.16 1016.01 1015.07 1013.97 1013.01 1012.24 1011.71 1011.30 1011.04 1010.75 1011.21
1016.41 1016.50 1016.55 1016.78 1017.24 1017.64 1017.51 1017.61 1017.06 1017.36 1017.16 1016.23 1016.09 1016.09 1016.02 1016.36 1016.14 1016.29 1016.69 1016.82 1016.78 1017.06 1016.94 1016.45 1016.35 1016.51 1016.98 1017.26 1017.29 1017.07 1016.86 1016.95 1017.27 1017.23 1016.99 1016.42 1013.60 1012.81 1011.51 1011.22 1011.03 1010.60 1010.16 1010.44 1011.16
1016.50 1016.77 1016.56 1016.54 1017.44 1016.76 1017.15 1017.24 1017.34 1017.34 1016.86 1015.78 1015.66 1014.89 1015.52 1015.68 1016.07 1015.91 1015.99 1016.28 1017.09 1016.79 1017.35 1017.11 1016.88 1017.06 1017.33 1017.28 1017.56 1017.21 1017.06 1017.40 1017.62 1017.80 1016.62 1016.27 1012.75 1011.67 1010.94 1010.12 1010.19 1009.61 1009.83 1010.32 1011.11
1016.72 1016.72 1016.43 1016.90 1016.98 1016.64 1016.92 1016.85 1017.25 1017.53 1016.89 1014.35 1015.13 1015.04 1014.94 1014.93 1015.12 1016.14 1016.17 1016.04 1016.21 1016.62 1017.20 1016.28 1016.85 1017.11 1017.17 1016.92 1017.44 1017.45 1017.63 1017.77 1017.86 1017.60 1017.14 1015.50 1014.59 1010.41 1010.38 1009.70 1009.06 1008.61 1009.61 1010.68 1011.42
1016.76 1016.82 1016.66 1016.82 1017.13 1016.89 1016.63 1017.13 1017.43 1017.88 1015.40 1014.70 1014.96 1015.15 1015.32 1015.24 1015.66 1016.25 1016.18 1016.11 1016.27 1016.53 1016.79 1016.80 1017.14 1017.12 1016.85 1017.43 1017.47 1018.01 1018.06 1018.29 1018.38 1017.82 1016.03 1014.42 1013.89 1008.41 1008.96 1008.81 1008.57 1009.09 1009.98 1010.97 1011.98
1016.80 1016.63 1016.74 1016.70 1016.62 1016.52 1016.63 1017.62 1016.53 1015.51 1015.36 1015.14 1015.15 1015.49 1015.14 1015.22 1015.85 1015.77 1015.87 1015.66 1015.34 1016.18 1015.84 1016.80 1016.77 1016.91 1017.04 1017.48 1018.11 1017.69 1017.60 1017.78 1017.65 1017.22 1014.45 1014.04 1013.25 1008.53 1009.19 1008.91 1009.17 1009.59 1010.42 1011.22 1012.27
1016.68 1016.58 1016.51 1016.59 1016.39 1016.75 1017.00 1018.14 1016.96 1015.77 1015.14 1015.39 1015.70 1015.71 1015.55 1015.45 1015.66 1015.78 1015.54 1015.45 1015.13 1014.70 1014.52 1015.20 1015.71 1015.96 1016.05 1015.57 1016.12 1016.85 1016.25 1015.83 1015.44 1015.47 1014.19 1014.28 1011.38 1008.81 1008.70 1008.86 1009.29 1009.94 1010.95 1011.80 1012.55
1016.78 1016.67 1016.64 1016.16 1016.29 1016.33 1016.87 1017.20 1016.25 1015.49 1015.55 1015.60 1015.94 1016.14 1015.74 1015.58 1015.34 1015.57 1015.49 1014.58 1013.97 1014.24 1014.04 1014.40 1014.79 1015.09 1015.54 1015.38 1015.31 1016.44 1016.23 1015.49 1015.58 1016.42 1015.30 1011.89 1009.29 1009.17 1009.10 1008.83 1009.28 1009.90 1010.85 1011.59 1012.58
1016.89 1016.79 1016.36 1015.85 1016.25 1016.38 1016.43 1016.22 1015.85 1015.47 1015.30 1015.55 1015.90 1016.37 1015.92 1015.91 1015.92 1016.03 1015.67 1014.34 1014.13 1013.96 1013.93 1014.01 1014.79 1015.40 1015.93 1015.98 1015.69 1015.28 1015.10 1015.98 1015.64 1015.11 1013.78 1010.15 1009.54 1008.32 1008.55 1008.46 1009.10 1009.65 1010.32 1011.54 1012.62
1016.98 1016.70 1015.82 1015.83 1016.28 1016.63 1016.31 1015.96 1015.57 1015.10 1014.86 1015.35 1015.42 1016.13 1016.14 1016.20 1016.62 1016.47 1016.11 1015.22 1014.62 1014.41 1014.47 1014.55 1015.27 1016.13 1016.25 1015.48 1014.77 1015.74 1015.35 1015.18 1014.59 1014.07 1012.81 1010.60 1007.93 1007.48 1007.66 1008.29 1009.02 1009.60 1010.53 1011.57 1012.63
1016.78 1016.50 1015.90 1015.89 1016.25 1015.94 1015.71 1015.49 1015.05 1014.87 1014.90 1015.06 1015.26 1015.62 1015.73 1015.42 1015.91 1016.34 1016.21 1015.75 1015.32 1015.18 1015.46 1015.48 1015.86 1015.86 1015.52 1015.55 1015.33 1014.43 1013.74 1013.80 1013.43 1013.68 1013.73 1012.63 1007.28 1007.98 1008.42 1008.61 1009.28 1010.08 1010.74 1011.81 1012.62
1016.53 1016.35 1016.03 1015.93 1015.26 1015.07 1015.22 1015.06 1014.88 1014.83 1014.63 1014.73 1015.02 1015.14 1015.25 1015.69 1016.12 1015.87 1015.96 1016.18 1016.07 1016.17 1016.23 1016.38 1016.36 1016.30 1016.29 1016.63 1016.01 1015.07 1014.29 1013.62 1013.38 1013.83 1013.01 1012.71 1007.71 1008.96 1009.28 1009.46 1009.91 1010.40 1010.98 1011.93 1012.95
1016.71 1016.54 1016.30 1015.78 1015.04 1014.64 1014.71 1014.78 1014.79 1014.54 1014.57 1014.52 1014.65 1014.85 1015.24 1015.68 1015.69 1015.83 1016.03 1016.31 1016.19 1016.62 1017.11 1016.99 1016.52 1016.31 1015.34 1014.84 1014.60 1014.87 1014.42 1014.02 1013.51 1013.50 1011.91 1010.53 1008.70 1009.53 1009.66 1009.65 1009.96 1010.44 1011.03 1011.80 1012.58
1016.38 1015.91 1015.61 1015.24 1014.59 1014.56 1014.62 1014.51 1014.35 1014.67 1014.81 1014.62 1014.63 1014.53 1014.96 1015.44 1015.71 1015.75 1015.85 1015.80 1016.34 1016.39 1017.10 1017.74 1017.34 1016.82 1016.05 1015.31 1015.27 1014.53 1014.11 1014.03 1014.02 1012.83 1012.27 1008.43 1009.44 1008.80 1009.20 1009.55 1009.30 1009.66 1010.88 1011.53 1012.12
1015.88 1016.00 1016.18 1015.55 1014.87 1014.49 1014.42 1014.19 1014.17 1014.51 1014.63 1014.67 1014.81 1014.72 1015.22 1015.56 1016.11 1016.25 1016.07 1016.23 1016.39 1016.59 1016.92 1017.43 1017.04 1016.94 1016.05 1015.62 1015.61 1015.09 1014.18 1013.21 1012.80 1012.41 1011.88 1009.86 1008.70 1008.10 1008.75 1008.98 1009.14 1009.57 1010.22 1010.58 1011.01
1015.57 1015.69 1015.50 1015.29 1015.00 1014.77 1014.10 1014.38 1014.34 1014.42 1014.88 1014.79 1015.03 1015.41 1016.03 1016.37 1016.63 1016.55 1016.50 1016.73 1017.04 1017.13 1017.27 1017.19 1017.08 1016.76 1015.74 1015.07 1014.87 1014.01 1012.31 1012.43 1011.93 1011.66 1010.70 1009.75 1007.11 1007.89 1008.59 1008.78 1008.76 1008.73 1008.96 1009.39 1009.66
Wind_Speed
4 2 2 3 3 4 5 5 5 6 6 7 8 9 9 11 5 3 4 1 3 4 3 4 2 3 2 4 2 0 4 6 5 7 3 6 9 3 0 4 4 6 3 4 9
6 4 2 2 3 2 2 3 5 6 7 8 9 9 9 9 3 5 2 2 2 4 5 9 7 5 3 3 2 4 4 6 1 3 3 7 7 8 6 9 7 6 8 4 11
7 6 4 2 1 1 1 2 4 6 7 8 9 9 9 5 3 1 0 1 2 2 2 2 5 3 3 2 3 3 4 3 3 4 3 4 5 6 8 9 10 14 12 12 15
7 6 6 4 2 1 2 3 4 5 7 8 9 10 10 2 3 2 1 3 2 2 5 5 5 5 4 5 3 4 1 2 1 3 4 4 3 5 12 10 3 8 0 14 17
7 7 6 5 4 2 2 3 4 5 7 9 10 11 2 2 3 2 2 2 3 4 5 5 6 4 5 4 4 4 3 3 1 2 3 2 6 5 12 13 7 2 6 12 15
9 7 7 6 5 3 2 3 5 5 6 8 10 11 1 5 2 2 3 3 2 3 3 4 4 2 5 3 4 2 1 2 3 3 3 4 2 3 5 3 11 10 12 12 15
9 9 8 7 6 5 3 3 4 5 6 8 8 3 1 6 1 1 2 1 1 2 4 1 4 1 5 5 2 2 3 4 8 3 4 4 7 13 14 4 9 12 13 12 14
9 10 9 8 7 5 4 3 4 5 7 6 6 2 6 1 1 2 3 3 2 4 4 3 4 7 2 5 2 1 2 4 3 4 1 6 13 6 2 6 14 15 14 13 15
10 11 9 9 7 6 3 3 4 6 6 6 2 2 5 2 3 3 2 5 4 3 5 4 4 4 4 4 3 1 6 5 4 5 3 7 10 1 1 4 11 11 12 13 15
11 11 10 9 8 7 3 3 3 3 0 1 1 2 4 3 3 3 2 4 3 6 5 2 3 4 4 7 10 6 6 4 6 4 4 7 19 14 10 10 15 16 14 15 16
12 11 11 10 10 7 5 0 3 2 2 6 4 1 2 3 1 1 1 5 4 2 8 2 8 12 18 17 3 2 3 8 5 2 5 14 18 21 17 16 19 19 21 21 21
7 11 12 12 10 9 3 2 2 3 4 12 4 4 2 3 3 3 4 9 6 10 7 5 13 16 1 6 7 7 11 14 11 4 5 12 17 20 21 21 20 20 21 23 18
5 6 5 10 11 8 6 9 2 1 4 5 8 8 6 8 6 13 13 5 4 9 15 16 4 6 10 6 10 12 15 10 9 5 6 8 15 12 14 13 20 24 25 21 16
7 3 4 4 8 6 5 6 3 1 5 6 9 8 7 9 6 2 12 5 5 14 8 11 5 5 9 10 12 15 11 9 6 3 8 2 11 12 11 17 11 17 14 12 11
6 3 3 4 1 2 2 7 4 1 7 4 4 3 3 10 13 7 1 3 11 9 8 6 10 10 11 8 14 3 5 7 3 7 6 10 9 5 4 11 17 18 5 3 1
5 4 0 3 1 3 3 1 7 8 14 4 4 5 10 7 3 4 7 3 2 6 2 1 2 4 2 4 5 12 7 5 2 2 11 12 11 12 10 14 13 7 3 5 2
4 4 3 1 1 6 4 2 8 6 1 5 3 5 6 8 5 7 13 13 12 10 15 4 6 2 3 8 3 4 9 4 5 6 11 3 10 18 8 7 8 7 5 2 1
4 4 1 2 1 6 4 4 5 0 7 2 1 4 10 9 5 6 11 13 16 8 4 15 13 16 13 13 10 12 10 8 7 6 7 3 11 7 13 11 9 7 6 5 6
4 0 1 3 4 2 4 4 4 6 4 5 3 3 7 4 4 7 11 13 12 15 15 9 11 3 3 5 12 9 12 6 7 3 5 11 18 10 12 15 8 10 7 7 4
1 1 3 2 7 0 2 5 4 3 6 6 5 3 1 2 4 6 11 5 8 14 13 4 8 2 5 3 3 9 10 6 5 6 10 13 11 13 6 14 11 10 7 3 3
2 3 2 5 4 1 3 5 5 5 4 6 9 6 6 6 5 3 2 4 2 3 14 9 6 4 5 13 16 7 8 5 3 5 6 14 13 5 11 7 10 8 5 6 7
3 3 1 8 5 3 3 6 4 5 3 3 3 9 10 9 7 9 7 5 3 3 5 9 4 9 10 1 3 10 14 18 8 7 5 3 23 4 5 6 9 8 6 7 7
3 1 1 3 7 7 5 4 4 5 7 8 8 7 2 3 4 3 5 3 2 2 5 5 4 3 4 2 3 7 10 16 14 4 12 8 17 4 2 7 4 5 6 5 7
3 4 2 2 4 9 13 9 7 3 3 2 5 6 5 6 6 4 5 5 6 3 12 4 6 6 6 4 5 6 7 13 18 10 10 24 20 1 4 8 7 9 9 10 11
3 4 2 8 10 11 11 5 16 9 6 4 4 10 7 4 5 8 8 5 6 9 6 6 2 2 14 8 5 8 14 18 17 19 11 22 22 18 10 9 12 9 7 10 12
5 4 2 1 3 16 13 10 12 13 8 5 5 3 9 9 5 1 4 3 1 3 11 9 5 5 6 8 11 12 17 16 24 27 27 30 29 16 7 16 18 10 12 13 13
2 1 2 3 4 9 14 12 9 6 1 2 4 3 2 2 3 5 5 4 4 1 4 0 3 5 7 1 4 9 20 23 22 23 22 25 28 17 12 12 14 15 15 15 12
Wind_Direction
207 200 136 107 83 41 32 16 7 2 3 352 346 337 331 330 303 193 232 96 166 146 142 137 135 121 133 104 79 179 214 220 213 186 173 150 193 154 6 188 201 196 259 73 143
195 195 181 140 117 86 52 18 356 353 351 347 337 332 328 327 259 236 71 151 188 170 175 178 169 163 126 106 107 214 227 219 208 187 193 175 206 168 197 195 213 222 206 161 170
198 192 193 191 168 129 5 21 356 346 344 338 330 326 325 299 259 155 95 200 183 191 210 169 135 168 142 139 150 169 243 171 205 206 207 185 204 188 221 222 222 216 207 182 185
203 209 192 197 213 268 325 340 346 346 338 332 328 326 324 241 237 117 194 168 165 152 155 154 166 154 150 179 155 213 190 199 119 181 167 193 140 200 230 235 321 250 58 182 193
221 209 210 197 214 221 297 323 331 339 336 328 328 332 282 211 249 114 152 160 160 181 189 172 174 150 177 159 160 220 168 199 249 210 231 163 219 249 250 243 231 246 210 207 209
224 214 223 213 203 227 251 302 318 325 330 328 330 322 262 238 76 146 164 141 171 175 141 172 182 148 110 142 221 100 216 263 244 217 228 236 233 203 240 273 237 229 233 226 220
207 217 217 223 208 198 239 272 297 310 317 321 334 334 221 257 28 135 170 139 159 187 138 84 125 206 135 136 105 93 255 262 226 214 218 205 234 230 248 233 251 239 243 239 231
200 218 209 221 210 202 199 249 288 301 307 309 325 264 254 56 133 160 153 98 85 54 89 89 100 96 34 122 93 215 236 248 130 178 109 222 266 250 174 236 252 250 243 240 235
205 214 207 218 210 200 215 251 280 302 302 309 239 253 254 137 188 153 191 152 103 67 63 86 65 73 150 188 210 209 255 224 300 192 141 222 282 174 194 249 269 261 248 242 241
204 204 205 212 201 194 170 280 316 312 27 186 108 240 177 195 135 136 69 127 120 127 111 77 89 171 165 202 231 205 216 217 249 148 206 222 259 263 247 262 267 267 258 252 243
203 198 197 199 196 174 135 201 189 179 220 219 194 270 128 101 134 134 151 121 118 151 182 110 204 201 212 219 233 132 210 255 241 185 221 245 261 271 276 266 263 260 258 253 249
159 203 194 189 185 170 148 228 268 38 271 229 242 282 210 188 129 192 174 178 178 190 140 171 229 220 187 176 205 232 252 258 280 272 230 275 263 269 265 255 253 259 258 255 263
103 114 115 184 183 166 179 208 120 179 258 231 196 209 191 171 205 182 176 152 181 174 197 216 198 210 193 188 201 227 234 242 260 319 225 285 268 235 266 257 255 255 255 267 268
68 74 95 74 168 138 192 189 186 222 265 227 206 228 163 153 232 149 178 150 184 210 190 239 186 155 191 224 209 245 211 220 243 266 273 318 286 267 266 267 250 253 245 253 253
39 51 66 48 137 101 51 164 108 76 260 166 153 99 187 185 129 199 236 131 178 171 178 202 181 189 206 210 185 235 142 181 185 230 305 223 267 238 228 249 255 257 239 217 201
47 31 78 146 206 138 111 320 103 181 222 163 118 161 163 189 69 107 170 72 103 140 240 312 43 209 231 105 170 140 101 80 92 221 256 243 228 274 205 229 247 270 186 149 333
26 25 350 295 137 149 96 41 186 194 321 167 164 184 191 172 142 174 176 185 179 183 218 173 210 186 165 111 85 201 165 206 225 202 258 89 215 252 294 220 243 229 181 252 158
343 334 246 248 54 167 129 67 245 101 244 108 62 177 200 155 187 157 162 197 225 228 216 212 222 186 184 218 174 191 197 208 240 227 280 128 236 249 235 272 233 230 251 252 254
341 26 252 228 226 190 141 176 235 174 162 151 80 265 199 188 166 164 214 224 209 198 210 189 234 191 224 176 178 178 217 253 271 102 280 250 257 250 232 240 236 235 238 233 191
192 250 224 171 173 317 101 200 208 204 160 166 171 189 208 61 167 198 178 228 224 195 234 205 260 158 154 180 208 216 146 172 213 228 242 251 264 249 229 233 226 221 206 169 153
162 212 119 159 138 152 206 213 205 194 178 180 171 178 194 167 155 179 239 299 248 190 208 227 240 133 138 207 181 168 200 220 232 223 250 277 265 195 238 187 188 169 171 177 191
167 200 84 168 173 194 192 179 188 185 162 108 96 205 211 189 178 188 215 238 333 103 188 202 188 222 202 57 305 253 216 195 200 198 241 297 266 124 202 181 166 183 184 187 200
190 255 30 238 198 203 152 187 190 182 187 176 189 190 151 164 207 202 179 47 88 262 171 160 201 173 164 259 286 231 215 221 236 50 212 205 263 44 102 154 197 211 224 205 216
162 185 247 255 222 205 196 197 191 222 252 212 189 161 161 201 184 178 199 211 141 93 4 285 168 217 257 33 113 197 222 225 213 206 216 227 250 112 217 225 208 217 218 205 214
179 219 281 198 206 211 195 204 197 195 223 209 224 203 178 207 226 224 231 224 196 179 158 168 263 290 267 273 231 239 211 211 240 233 221 250 242 240 234 243 237 221 201 211 231
171 182 168 244 244 203 196 205 186 191 182 198 208 183 229 239 227 159 29 311 238 121 162 185 220 170 252 245 258 253 252 240 217 222 227 245 252 242 245 238 248 226 226 238 234
161 110 186 162 178 188 214 196 188 194 40 93 168 120 267 326 292 301 257 240 253 27 347 158 195 185 251 241 254 233 237 230 235 237 228 242 246 253 251 233 227 239 247 250 250